User: anonymous   Login
Location: S�tio Afonso Gruber
(26.1760°S, 49.5250°W)
Time: 09:56:32
(UTC+00:00)
Language:

JY1SAT - Orbit

View from above orbital plane
View from above orbital plane
View from above satellite
View from above satellite

Ground track
Ground track

The orbit data is extracted from the following two-line orbital elements,

1 43803U 18099AX  22329.70488865  .00002580  00000-0  22263-3 0  9992
2 43803  97.6008  32.6016 0015190  86.9079 273.3881 14.98048683217208
Epoch (UTC): 25 November 2022 16:55:02
Eccentricity: 0.0015190
inclination: 97.6008°
perigee height: 562 km
apogee height: 583 km
right ascension of ascending node: 32.6016°
argument of perigee: 86.9079°
revolutions per day: 14.98048683
mean anomaly at epoch: 273.3881°
orbit number at epoch: 21720

The dashed part of the orbit path shows where the satellite is in the earth's shadow,  

DLR